�N����,����,�~����,�C��,���x,�C��,����,���ϕ���,�ő�u�ԕ���,�ő厞����,���˗�,�I�_���x,�n�����x,�ő啗���N��,DTYPE
"17/07/04","00:10",0.0,24.2,89.6,1003.6,292.5,0.5,1.0,312.6,0.00,22.4,25.7,"00:01:36",1
"17/07/04","00:20",0.0,24.2,90.4,1003.6,313.8,1.0,1.6,333.7,0.00,22.6,25.5,"00:12:24",1
"17/07/04","00:30",0.0,24.1,90.3,1003.8,314.2,1.1,1.8,320.1,0.00,22.5,25.5,"00:20:48",1
"17/07/04","00:40",0.0,24.2,90.6,1003.6,331.0,1.2,1.9,321.4,0.00,22.6,25.5,"00:33:28",1
"17/07/04","00:50",0.0,24.2,90.4,1003.6,311.4,0.7,1.4,321.0,0.00,22.6,25.2,"00:45:20",1
"17/07/04","01:00",0.0,24.2,90.4,1003.8,306.9,0.3,0.8,341.6,0.00,22.6,25.4,"00:51:12",1
"17/07/04","01:10",0.0,24.1,90.8,1003.4,310.0,0.7,1.1,307.0,0.00,22.5,25.4,"01:04:48",1
"17/07/04","01:20",0.0,24.2,91.0,1003.4,300.4,0.7,1.3,328.6,0.00,22.7,25.2,"01:11:36",1
"17/07/04","01:30",0.0,24.2,91.2,1003.4,311.0,0.8,1.3,327.2,0.00,22.7,25.3,"01:27:20",1
"17/07/04","01:40",0.0,24.3,91.1,1003.6,300.8,0.8,1.4,325.1,0.00,22.8,25.1,"01:35:12",1
"17/07/04","01:50",0.0,24.4,91.1,1002.9,324.7,1.1,1.6,322.3,0.00,22.9,25.4,"01:49:04",1
"17/07/04","02:00",0.0,24.5,90.8,1002.9,307.9,0.7,1.1,332.2,0.00,22.9,25.2,"01:50:32",1
"17/07/04","02:10",0.0,24.5,90.7,1002.6,277.9,0.7,1.0,268.0,0.00,22.9,25.1,"02:02:32",1
"17/07/04","02:20",0.0,24.6,90.6,1002.4,302.9,0.7,1.2,320.1,0.00,23.0,25.1,"02:17:04",1
"17/07/04","02:30",0.0,24.7,90.4,1002.9,336.9,1.1,2.1,341.4,0.00,23.1,25.0,"02:22:56",1
"17/07/04","02:40",0.0,24.6,90.4,1002.6,310.8,0.7,1.7,324.6,0.00,23.0,25.0,"02:35:12",1
"17/07/04","02:50",0.0,24.4,90.6,1003.1,319.5,0.8,1.7,243.3,0.00,22.8,25.3,"02:43:28",1
"17/07/04","03:00",0.0,24.4,91.0,1002.9,307.6,0.7,1.3,340.9,0.00,22.9,25.0,"02:58:32",1
"17/07/04","03:10",0.0,24.5,90.9,1003.1,305.2,0.7,1.3,328.5,0.00,23.0,25.1,"03:08:40",1
"17/07/04","03:20",0.0,24.4,91.1,1002.9,323.9,1.0,1.4,335.0,0.00,22.9,25.0,"03:11:28",1
"17/07/04","03:30",0.0,24.6,91.0,1003.4,319.9,0.6,1.6,340.6,0.00,23.1,24.9,"03:26:08",1
"17/07/04","03:40",0.0,24.6,91.0,1003.1,326.7,0.8,1.9,340.1,0.00,23.1,24.9,"03:31:28",1
"17/07/04","03:50",0.0,24.7,90.8,1002.9,311.5,0.8,1.6,310.4,0.00,23.1,25.0,"03:41:12",1
"17/07/04","04:00",0.0,25.2,89.6,1003.1,283.9,0.8,2.0,325.9,0.00,23.4,25.0,"03:51:52",1
"17/07/04","04:10",0.0,25.3,88.3,1002.9,289.5,0.6,1.1,337.2,0.00,23.3,24.8,"04:03:12",1
"17/07/04","04:20",0.0,25.4,87.9,1003.1,291.5,0.7,1.7,246.3,0.00,23.3,25.1,"04:17:52",1
"17/07/04","04:30",0.0,25.4,87.4,1003.4,280.5,0.7,1.7,239.6,0.00,23.2,24.9,"04:20:24",1
"17/07/04","04:40",0.0,25.3,87.4,1003.1,342.7,0.5,1.1,337.0,0.00,23.1,25.0,"04:31:20",1
"17/07/04","04:50",0.0,25.2,88.2,1003.4,335.4,0.5,1.3,324.3,0.00,23.1,24.7,"04:44:00",1
"17/07/04","05:00",0.0,25.1,88.8,1003.4,323.6,0.7,1.8,338.9,0.00,23.2,24.9,"04:52:24",1
"17/07/04","05:10",0.0,24.9,89.4,1003.1,299.7,0.5,1.0,317.4,0.00,23.1,24.8,"05:01:28",1
"17/07/04","05:20",0.0,24.8,89.9,1003.4,316.1,0.8,1.2,328.3,0.00,23.1,24.7,"05:17:36",1
"17/07/04","05:30",0.0,24.8,90.4,1003.6,323.0,0.7,1.0,343.8,0.00,23.2,24.6,"05:22:08",1
"17/07/04","05:40",0.0,24.8,90.7,1003.4,324.4,0.7,1.0,337.8,0.00,23.2,25.0,"05:38:40",1
"17/07/04","05:50",0.0,24.8,91.0,1003.1,322.7,1.0,1.6,326.1,0.00,23.3,25.0,"05:43:28",1
"17/07/04","06:00",0.0,24.7,90.9,1003.6,309.0,0.8,1.4,328.0,0.00,23.2,24.7,"05:58:32",1
"17/07/04","06:10",0.0,24.7,91.1,1003.4,311.3,0.7,1.2,323.4,0.00,23.2,24.8,"06:01:52",1
"17/07/04","06:20",0.0,24.8,91.3,1003.1,306.1,0.7,1.2,322.3,0.00,23.3,24.9,"06:11:28",1
"17/07/04","06:30",0.0,24.9,91.1,1003.1,282.9,0.7,1.0,270.9,0.00,23.4,24.7,"06:21:04",1
"17/07/04","06:40",0.0,25.1,91.2,1003.4,313.9,1.0,1.6,335.9,0.01,23.6,24.6,"06:31:36",1
"17/07/04","06:50",0.0,25.3,90.7,1003.1,314.6,0.7,1.3,323.4,0.01,23.7,24.8,"06:41:28",1
"17/07/04","07:00",0.0,25.5,90.5,1003.1,291.9,0.7,0.9,317.1,0.01,23.9,24.7,"06:50:16",1
"17/07/04","07:10",0.0,25.6,89.6,1003.4,302.9,1.0,1.6,304.2,0.01,23.8,24.8,"07:06:32",1
"17/07/04","07:20",0.0,25.8,89.5,1003.4,281.0,0.6,1.0,303.8,0.03,24.0,25.1,"07:18:24",1
"17/07/04","07:30",0.0,26.2,88.6,1002.9,274.2,0.3,0.6,257.1,0.05,24.2,24.8,"07:28:08",1
"17/07/04","07:40",0.0,26.5,87.7,1003.1,280.7,0.3,0.8,321.3,0.07,24.3,24.9,"07:31:28",1
"17/07/04","07:50",0.0,27.0,84.7,1002.9,312.0,0.2,0.6,291.8,0.08,24.2,24.9,"07:40:16",1
"17/07/04","08:00",0.0,27.3,84.1,1002.9,351.8,0.6,1.6,347.4,0.07,24.4,25.1,"07:58:08",1
"17/07/04","08:10",0.0,27.4,83.0,1002.9,345.8,0.6,1.9,340.2,0.08,24.3,25.0,"08:02:00",1
"17/07/04","08:20",0.0,27.7,81.6,1002.6,106.3,0.1,0.5,119.9,0.11,24.3,25.2,"08:10:08",1
"17/07/04","08:30",0.0,28.0,80.4,1002.6,101.9,0.2,1.0,92.9,0.07,24.3,25.2,"08:26:00",1
"17/07/04","08:40",0.0,28.1,80.9,1002.4,281.8,0.3,0.8,255.6,0.08,24.5,25.2,"08:32:00",1
"17/07/04","08:50",0.0,28.0,81.6,1002.2,307.7,0.5,1.6,340.1,0.09,24.6,25.3,"08:47:28",1
"17/07/04","09:00",0.0,28.1,81.3,1002.6,341.2,0.6,1.2,342.7,0.07,24.6,25.3,"08:50:32",1
"17/07/04","09:10",0.0,28.0,81.2,1002.2,332.3,0.8,1.3,341.8,0.09,24.5,25.2,"09:00:32",1
"17/07/04","09:20",0.0,28.0,80.8,1002.2,334.7,0.7,1.3,317.5,0.05,24.4,25.4,"09:18:00",1
"17/07/04","09:30",0.0,28.0,80.4,1002.2,321.1,0.6,1.2,334.3,0.11,24.3,25.5,"09:20:16",1
"17/07/04","09:40",0.0,28.6,79.9,1002.2,20.3,0.2,0.8,359.7,0.13,24.8,25.6,"09:34:00",1
"17/07/04","09:50",0.0,29.0,79.2,1001.9,182.2,0.3,1.2,215.9,0.17,25.1,25.6,"09:43:36",1
"17/07/04","10:00",0.0,28.7,78.5,1001.7,359.5,1.0,1.8,339.3,0.15,24.6,25.6,"09:58:40",1
"17/07/04","10:10",0.0,29.1,76.9,1001.9,7.1,0.7,1.9,354.2,0.20,24.7,25.9,"10:01:36",1
"17/07/04","10:20",0.0,29.7,76.5,1002.4,69.9,0.3,1.7,7.7,0.20,25.2,25.9,"10:11:04",1
"17/07/04","10:30",0.0,29.6,77.4,1002.4,11.7,0.3,1.6,333.9,0.13,25.3,26.0,"10:24:16",1
"17/07/04","10:40",0.0,29.7,73.4,1001.9,201.6,1.0,4.0,218.7,0.17,24.5,26.2,"10:35:44",1
"17/07/04","10:50",0.0,30.0,73.0,1001.7,212.8,1.7,2.9,216.0,0.22,24.7,26.2,"10:43:44",1
"17/07/04","11:00",0.0,30.6,71.6,1001.9,225.8,1.2,2.5,240.0,0.24,24.9,26.1,"10:51:12",1
"17/07/04","11:10",0.0,30.4,69.4,1002.2,237.1,1.3,3.9,218.8,0.23,24.2,26.2,"11:08:16",1
"17/07/04","11:20",0.0,30.7,69.6,1001.7,239.9,1.3,3.4,223.3,0.23,24.5,26.3,"11:12:08",1
"17/07/04","11:30",0.0,30.3,70.2,1001.7,254.7,1.1,2.1,200.9,0.17,24.3,26.3,"11:25:44",1
"17/07/04","11:40",0.0,30.2,71.3,1001.7,238.3,1.5,3.6,228.7,0.14,24.5,26.5,"11:35:28",1
"17/07/04","11:50",0.0,30.2,69.8,1001.5,200.7,1.6,3.1,205.7,0.17,24.1,26.5,"11:48:24",1
"17/07/04","12:00",0.0,30.5,69.6,1001.2,234.5,0.8,2.0,206.9,0.18,24.4,26.6,"11:51:12",1
"17/07/04","12:10",0.0,30.4,70.1,1001.2,267.4,0.7,2.1,183.8,0.18,24.4,26.5,"12:09:36",1
"17/07/04","12:20",0.0,30.3,70.3,1001.2,202.6,1.0,2.2,320.9,0.16,24.3,26.8,"12:16:56",1
"17/07/04","12:30",0.0,30.6,69.0,1001.0,208.6,1.7,4.3,221.0,0.23,24.3,26.8,"12:29:44",1
"17/07/04","12:40",0.0,30.2,69.5,1000.5,216.6,1.5,4.0,224.2,0.13,24.0,26.9,"12:39:28",1
"17/07/04","12:50",0.0,29.8,71.5,1000.5,223.8,1.7,3.9,228.3,0.08,24.1,26.7,"12:41:04",1
"17/07/04","13:00",0.0,29.4,74.0,1000.0,222.9,1.5,4.3,201.8,0.06,24.3,26.8,"12:50:02",1
"17/07/04","13:10",0.0,28.5,75.3,999.6,197.2,1.7,4.0,226.9,0.05,23.7,26.7,"13:00:08",1
"17/07/04","13:20",0.0,28.6,79.4,999.3,326.9,0.7,1.8,348.2,0.02,24.7,26.6,"13:18:24",1
"17/07/04","13:30",0.0,28.2,80.0,999.3,311.7,0.7,1.9,321.5,0.02,24.5,26.6,"13:29:04",1
"17/07/04","13:40",0.0,27.7,81.3,999.6,324.0,0.7,1.8,329.1,0.01,24.2,26.7,"13:37:04",1
"17/07/04","13:50",0.0,27.6,84.2,999.8,358.3,0.8,1.8,25.7,0.04,24.7,26.6,"13:46:24",1
"17/07/04","14:00",0.0,27.2,85.3,999.3,6.0,1.2,2.7,31.0,0.04,24.6,26.4,"13:54:32",1
"17/07/04","14:10",0.0,27.0,86.5,999.3,5.9,1.1,2.4,24.6,0.03,24.6,26.7,"14:04:08",1
"17/07/04","14:20",0.0,26.8,87.2,999.1,13.4,0.7,1.7,314.8,0.02,24.5,26.4,"14:10:48",1
"17/07/04","14:30",0.0,26.7,87.1,999.1,5.8,0.8,1.7,38.0,0.02,24.4,26.5,"14:24:48",1
"17/07/04","14:40",0.0,26.5,87.7,999.1,2.7,1.1,1.9,0.5,0.01,24.3,26.5,"14:37:12",1
"17/07/04","14:50",0.0,26.3,88.5,998.4,11.5,0.6,1.6,336.5,0.01,24.3,26.3,"14:40:40",1
"17/07/04","15:00",0.0,26.0,88.8,998.4,21.3,0.7,2.4,340.0,0.00,24.0,26.4,"14:51:28",1
"17/07/04","15:10",0.0,25.8,89.6,998.2,31.8,0.3,1.6,61.8,0.00,24.0,26.2,"15:04:08",1
"17/07/04","15:20",0.0,25.7,90.1,998.4,95.3,0.6,1.3,41.2,0.00,24.0,26.2,"15:16:48",1
"17/07/04","15:30",0.0,25.5,90.6,997.9,115.4,0.2,1.0,52.8,0.00,23.9,26.3,"15:20:40",1
"17/07/04","15:40",0.0,25.4,91.2,998.2,65.0,0.3,0.9,137.1,0.00,23.9,26.1,"15:32:24",1
"17/07/04","15:50",0.0,25.4,91.6,997.7,324.1,0.7,1.6,349.2,0.01,24.0,26.1,"15:48:42",1
"17/07/04","16:00",0.0,25.4,92.2,997.4,24.6,0.6,1.3,350.3,0.02,24.1,25.9,"15:59:20",1
"17/07/04","16:10",0.0,25.6,92.2,997.4,43.1,0.6,1.2,20.8,0.05,24.3,26.0,"16:02:32",1
"17/07/04","16:20",0.0,25.6,92.3,997.2,53.4,0.5,1.0,49.3,0.01,24.3,25.9,"16:16:16",1
"17/07/04","16:30",0.0,25.4,92.1,997.0,66.9,0.3,1.1,354.2,0.00,24.1,25.7,"16:21:12",1
"17/07/04","16:40",0.0,25.5,92.3,996.7,21.9,0.6,1.6,36.4,0.00,24.2,25.5,"16:38:32",1
"17/07/04","16:50",0.0,25.4,92.4,996.7,15.8,0.3,1.2,3.1,0.01,24.1,25.6,"16:47:12",1
"17/07/04","17:00",0.0,25.5,92.6,996.7,273.4,0.6,1.6,227.7,0.01,24.3,25.8,"16:53:52",1
"17/07/04","17:10",0.0,25.5,92.4,996.7,12.2,0.3,1.1,39.8,0.01,24.2,25.7,"17:04:56",1
"17/07/04","17:20",0.0,25.5,92.3,997.2,287.6,0.5,1.2,303.3,0.00,24.2,25.7,"17:17:36",1
"17/07/04","17:30",0.0,25.4,92.4,996.5,357.3,0.6,1.8,327.5,0.00,24.1,25.7,"17:20:08",1
"17/07/04","17:40",0.0,25.3,92.3,995.8,116.0,0.2,0.9,30.1,0.00,24.0,25.6,"17:38:42",1
"17/07/04","17:50",0.0,25.3,92.3,995.8,232.4,0.5,1.2,166.2,0.00,24.0,25.7,"17:47:12",1
"17/07/04","18:00",0.0,25.3,92.7,996.3,239.6,0.5,1.1,319.1,0.01,24.1,25.6,"17:58:26",1
"17/07/04","18:10",0.0,25.4,92.7,996.5,331.1,1.5,2.2,343.2,0.00,24.2,25.8,"18:06:40",1
"17/07/04","18:20",0.0,25.3,92.8,996.7,332.6,1.2,2.8,334.8,0.00,24.1,25.6,"18:10:48",1
"17/07/04","18:30",0.0,25.2,93.0,997.2,329.8,1.1,2.1,339.7,0.00,24.0,25.7,"18:21:04",1
"17/07/04","18:40",0.0,25.2,93.1,997.2,272.7,0.6,1.1,292.2,0.00,24.0,25.5,"18:39:28",1
"17/07/04","18:50",0.0,25.3,93.3,997.2,297.7,0.7,2.1,339.9,0.01,24.2,25.6,"18:42:24",1
"17/07/04","19:00",0.0,25.5,93.2,997.4,311.1,0.8,1.7,342.0,0.04,24.4,25.5,"18:53:12",1
"17/07/04","19:10",0.0,25.4,92.9,997.4,321.1,0.7,1.8,343.3,0.02,24.2,25.6,"19:00:48",1
"17/07/04","19:20",0.0,25.2,92.7,997.7,316.4,0.8,2.2,346.8,0.00,24.0,25.6,"19:18:32",1
"17/07/04","19:30",0.0,25.1,92.8,997.9,310.2,1.0,2.5,346.5,0.00,23.9,25.4,"19:28:16",1
"17/07/04","19:40",0.0,25.0,92.8,998.2,302.9,0.8,2.6,347.3,0.00,23.8,25.5,"19:36:48",1
"17/07/04","19:50",0.0,25.0,92.7,998.6,277.4,0.6,1.1,298.0,0.00,23.8,25.3,"19:42:32",1
"17/07/04","20:00",0.0,24.8,92.4,998.9,281.1,1.0,1.9,331.2,0.00,23.5,25.6,"19:58:32",1
"17/07/04","20:10",0.0,24.8,92.1,999.1,318.8,1.1,2.4,325.6,0.00,23.5,25.2,"20:02:40",1
"17/07/04","20:20",0.0,24.8,91.9,999.1,319.0,1.2,3.4,340.7,0.00,23.4,25.2,"20:13:28",1
"17/07/04","20:30",0.0,24.7,91.8,999.1,324.3,0.5,1.4,348.3,0.00,23.3,25.3,"20:20:56",1
"17/07/04","20:40",0.0,24.6,92.3,999.3,290.9,0.6,1.2,327.4,0.00,23.3,25.3,"20:35:28",1
"17/07/04","20:50",0.0,24.4,92.6,999.6,337.3,0.5,1.1,342.2,0.00,23.2,25.2,"20:43:04",1
"17/07/04","21:00",0.0,24.5,92.8,999.8,324.7,0.6,1.4,330.8,0.00,23.3,25.4,"20:56:00",1
"17/07/04","21:10",0.0,24.5,92.8,999.6,254.9,0.7,2.1,216.7,0.00,23.3,25.0,"21:05:12",1
"17/07/04","21:20",0.0,24.6,92.6,999.8,306.2,0.3,1.1,319.2,0.00,23.4,25.1,"21:18:48",1
"17/07/04","21:30",0.0,24.5,92.5,999.8,212.6,0.5,1.1,228.5,0.00,23.2,25.1,"21:26:24",1
"17/07/04","21:40",0.0,24.6,92.3,999.8,222.1,0.6,2.4,222.0,0.00,23.3,24.9,"21:38:16",1
"17/07/04","21:50",0.0,24.8,91.7,1000.5,283.5,0.6,2.0,334.1,0.00,23.4,24.8,"21:41:36",1
"17/07/04","22:00",0.0,24.9,91.5,1000.8,257.6,0.8,2.0,247.6,0.00,23.5,25.1,"21:55:12",1
"17/07/04","22:10",0.0,25.0,91.3,1000.8,266.8,0.8,2.0,222.7,0.00,23.5,24.9,"22:00:40",1
"17/07/04","22:20",0.0,25.0,90.9,1000.5,275.5,0.7,2.4,233.9,0.00,23.4,25.0,"22:10:48",1
"17/07/04","22:30",0.0,25.0,90.6,1001.0,271.4,0.8,1.6,255.5,0.00,23.4,24.9,"22:26:40",1
"17/07/04","22:40",0.0,25.1,90.0,1001.2,277.0,1.2,2.5,233.4,0.00,23.4,24.8,"22:38:00",1
"17/07/04","22:50",0.0,25.1,89.6,1001.0,271.2,0.8,2.0,241.0,0.00,23.3,25.0,"22:40:56",1
"17/07/04","23:00",0.0,24.9,89.3,1001.0,296.0,0.7,2.2,232.8,0.00,23.1,24.9,"22:57:52",1
"17/07/04","23:10",0.0,24.8,89.6,1001.0,253.3,0.5,1.8,342.6,0.00,23.0,24.9,"23:03:20",1
"17/07/04","23:20",0.0,24.6,90.1,1001.2,142.5,0.6,1.6,160.7,0.00,22.9,24.8,"23:19:12",1
"17/07/04","23:30",0.0,24.6,90.1,1001.2,263.0,0.6,1.7,236.0,0.00,22.9,24.9,"23:27:04",1
"17/07/04","23:40",0.0,24.6,90.5,1001.0,309.7,0.7,1.1,271.8,0.00,23.0,24.9,"23:30:08",1
"17/07/04","23:50",0.0,24.3,91.3,1001.2,321.5,1.0,1.6,301.4,0.00,22.8,24.8,"23:43:12",1
"17/07/04","24:00",0.0,24.1,91.8,1001.2,306.9,0.6,1.2,343.5,0.00,22.7,24.6,"23:51:52",1
